Regional Weather Roundup
Issued by NWS Charleston, WV

Home | Current Version | Previous Version | Graphics & Text | Print | Product List | Glossary On
Versions: 1 2 3 4 5 6 7 8 9 10 11 12 13 14 15 16 17 18 19 20 21 22 23 24 25 26 27 28 29 30 31 32 33 34 35 36 37 38 39 40 41 42 43 44 45 46 47 48 49 50
000
ASUS41 KRLX 202010
RWRRLX
West Virginia Regional Weather Roundup
National Weather Service Charleston WV
300 PM EST MON NOV 20 2017

Note: "fair" indicates few or no clouds below 12,000 feet with no
significant weather and/or obstructions to visibility.

WVZ003-202100-
Northern Panhandle of West Virginia

CITY           SKY/WX    TMP DP  RH WIND       PRES   REMARKS
WHEELING       SUNNY     43  23  45 SW9       30.09F
$$

WVZ009-202100-
Northwest West Virginia

CITY           SKY/WX    TMP DP  RH WIND       PRES   REMARKS
PARKERSBURG    SUNNY     45  21  38 VRB6      30.17F
$$

WVZ006-202100-
Western West Virginia

CITY           SKY/WX    TMP DP  RH WIND       PRES   REMARKS
HUNTINGTON     SUNNY     47  23  38 S12       30.15F
$$

WVZ015-202100-
West Central West Virginia

CITY           SKY/WX    TMP DP  RH WIND       PRES   REMARKS
CHARLESTON     SUNNY     48  20  32 SW9       30.16F
$$

WVZ022-031-202100-
North Central West Virginia

CITY           SKY/WX    TMP DP  RH WIND       PRES   REMARKS
CLARKSBURG     SUNNY     44  22  41 SW12      30.14F
MORGANTOWN     SUNNY     43  22  43 SW10G16   30.12F
$$

WVZ025-035-042-045-202100-
Southern West Virginia

CITY           SKY/WX    TMP DP  RH WIND       PRES   REMARKS
BECKLEY        SUNNY     44  20  38 SW8       30.15F
LOGAN            N/A     46  21  36 VRB7      30.15F
BLUEFIELD      SUNNY     44  17  33 W8        30.16F
LEWISBURG      SUNNY     44  23  42 SW8       30.17S
$$

WVZ047-202100-
Northern Mountains of West Virginia

CITY           SKY/WX    TMP DP  RH WIND       PRES   REMARKS
ELKINS         SUNNY     45  20  36 S8        30.13S
$$

WVZ052-202100-
Eastern Panhandle of West Virginia

CITY           SKY/WX    TMP DP  RH WIND       PRES   REMARKS
MARTINSBURG    SUNNY     50  18  28 W14       30.12F
PETERSBURG     SUNNY     50  22  33 CALM      30.13S
$$




USA.gov is the U.S. government's official web portal to all federal, state and local government web resources and services.